Ottumwa, IA

7:14 AM CDT on May 24, 2017 (GMT -0500)
Ottumwa Industrial

Weather History for KOTM - March, 2013

Change the Weather History Date:

Tuesday, March 5, 2013

  Actual Average Record
Temperature  
Mean Temperature 29 °F 34 °F  
Max Temperature 31 °F 44 °F 75 °F (1921)
Min Temperature 27 °F 24 °F -15 °F (1960)
Degree Days  
Heating Degree Days 36 31  
Month to date heating degree days 199 159  
Since 1 July heating degree days 4726 5044  
Cooling Degree Days 0 0  
Month to date cooling degree days 0 0  
Year to date cooling degree days 0 0  
Moisture  
Dew Point 24 °F    
Average Humidity 78    
Maximum Humidity 92    
Minimum Humidity 63    
Precipitation  
Precipitation 0.14 in 0.07 in 1.30 in (2006)
Month to date precipitation 0.15 0.34  
Year to date precipitation 3.48 2.52  
Sea Level Pressure  
Sea Level Pressure 30.00 in    
Wind  
Wind Speed 18 mph (NW)    
Max Wind Speed 31 mph    
Max Gust Speed 39 mph    
Visibility 5 miles    
Events Fog , Snow    
T = Trace of Precipitation, MM = Missing Value Source: NWS Daily Summary

Daily Weather History Graph

Daily Weather History Graph

Search for Another Location

Airport or City:

Trip Planner

Search our weather history database for the weather conditions in past years. The results will help you decide how hot, cold, wet, or windy it might be!

Date:

Astronomy

Mar. 05, 2013 Rise Set
Actual Time 6:37 AM CST 6:05 PM CST
Civil Twilight 6:09 AM CST 6:33 PM CST
Nautical Twilight 5:38 AM CST 7:05 PM CST
Astronomical Twilight 5:06 AM CST 7:37 PM CST
Moon 1:52 AM CST (3/5) 11:42 AM CST (3/5)
Length of Visible Light 12h 23m
Length of Day
11h 28m
Last Quarter, 40% of the Moon is Illuminated
Mar 5
Last Quarter
Mar 11
New
Mar 19
First Quarter
Mar 27
Full
Apr 2
Last Quarter

Hourly Weather History & Observations

Time (CST) Temp. Windchill Dew Point Humidity Pressure Visibility Wind Dir Wind Speed Gust Speed Precip Events Conditions
12:15 AM 30.2 °F 24.3 °F 26.6 °F 86% 29.91 in 2.5 mi ENE 5.8 mph - 0.00 in Snow Light Snow
1:28 AM 28.4 °F 23.3 °F 26.6 °F 93% 29.91 in 1.0 mi NE 4.6 mph - 0.02 in Snow Light Snow
1:35 AM 30.2 °F 25.4 °F 26.6 °F 86% 29.92 in 0.8 mi NE 4.6 mph - 0.03 in Snow Light Snow
1:53 AM 30.0 °F 26.5 °F 27.0 °F 88% 29.94 in 1.0 mi NNE 3.5 mph - 0.04 in Snow Light Snow
2:00 AM 30.2 °F 26.7 °F 28.4 °F 93% 29.91 in 1.0 mi North 3.5 mph - 0.00 in Snow Light Snow
2:27 AM 28.4 °F 23.3 °F 28.4 °F 100% 29.91 in 0.5 mi North 4.6 mph - 0.02 in Fog , Snow Snow
2:44 AM 28.4 °F 23.3 °F 26.6 °F 93% 29.90 in 0.5 mi NNW 4.6 mph - 0.04 in Fog , Snow Snow
2:53 AM 28.9 °F 22.8 °F 27.0 °F 92% 29.93 in 0.5 mi NNW 5.8 mph - 0.05 in Fog , Snow Snow
3:19 AM 28.4 °F 21.2 °F 26.6 °F 93% 29.90 in 0.8 mi NW 6.9 mph - 0.02 in Snow Light Snow
3:53 AM 28.9 °F 21.1 °F 27.0 °F 92% 29.94 in 0.8 mi NW 8.1 mph - 0.03 in Snow Light Snow
4:09 AM 28.4 °F 20.4 °F 26.6 °F 93% 29.91 in 0.8 mi NW 8.1 mph - 0.01 in Snow Light Snow
4:18 AM 28.4 °F 19.7 °F 26.6 °F 93% 29.91 in 1.0 mi NW 9.2 mph - N/A Snow Light Snow
4:47 AM 28.4 °F 19.7 °F 26.6 °F 93% 29.92 in 2.0 mi NW 9.2 mph - 0.02 in Snow Light Snow
4:48 AM 28.9 °F 20.4 °F 26.1 °F 89% 29.95 in 2.0 mi NW 9.2 mph - 0.02 in Snow Light Snow
5:08 AM 28.4 °F 19.7 °F 26.6 °F 93% 29.93 in 1.5 mi NW 9.2 mph - 0.00 in Snow Light Snow
5:15 AM 28.4 °F 18.5 °F 26.6 °F 93% 29.93 in 1.5 mi NW 11.5 mph - 0.00 in Snow Light Snow
5:26 AM 28.4 °F 19.7 °F 26.6 °F 93% 29.94 in 2.0 mi WNW 9.2 mph - 0.00 in Snow Light Snow
5:45 AM 28.4 °F 20.4 °F 26.6 °F 93% 29.93 in 3.0 mi WNW 8.1 mph - 0.00 in   Overcast
5:53 AM 28.0 °F 18.6 °F 26.1 °F 92% 29.96 in 3.0 mi WNW 10.4 mph - 0.00 in   Overcast
6:53 AM 28.4 °F 15.4 °F 24.8 °F 86% 29.95 in 2.0 mi NW 19.6 mph 24.2 mph N/A Snow Light Snow
7:02 AM 28.4 °F 15.4 °F 24.8 °F 86% 29.95 in 3.0 mi NW 19.6 mph - 0.00 in Snow Light Snow
7:53 AM 28.0 °F 15.3 °F 24.1 °F 85% 29.99 in 9.0 mi WNW 18.4 mph - 0.00 in   Overcast
8:17 AM 28.4 °F 15.4 °F 23.0 °F 80% 29.97 in 9.0 mi NW 19.6 mph 27.6 mph N/A   Overcast
8:53 AM 28.0 °F 15.3 °F 21.9 °F 78% 30.01 in 10.0 mi WNW 18.4 mph 28.8 mph N/A   Overcast
9:30 AM 28.4 °F 15.1 °F 21.2 °F 74% 29.97 in 9.0 mi NW 20.7 mph 32.2 mph N/A   Overcast
9:46 AM 28.4 °F 15.1 °F 21.2 °F 74% 29.97 in 10.0 mi NW 20.7 mph 28.8 mph N/A   Overcast
9:53 AM 28.9 °F 16.5 °F 21.0 °F 72% 30.00 in 10.0 mi WNW 18.4 mph 28.8 mph N/A   Overcast
10:30 AM 28.4 °F 16.6 °F 21.2 °F 74% 29.97 in 10.0 mi WNW 16.1 mph 27.6 mph N/A   Mostly Cloudy
10:53 AM 28.9 °F 16.1 °F 19.0 °F 67% 30.00 in 10.0 mi WNW 19.6 mph 27.6 mph N/A   Mostly Cloudy
11:24 AM 30.2 °F 17.1 °F 19.4 °F 64% 29.97 in 10.0 mi NW 21.9 mph 27.6 mph N/A   Mostly Cloudy
11:53 AM 30.0 °F 17.9 °F 19.0 °F 64% 30.00 in 10.0 mi WNW 18.4 mph - N/A   Overcast
12:29 PM 30.2 °F 17.8 °F 19.4 °F 64% 29.97 in 10.0 mi WNW 19.6 mph 25.3 mph N/A   Overcast
12:53 PM 28.9 °F 16.9 °F 21.0 °F 72% 30.00 in 10.0 mi WNW 17.3 mph - N/A   Overcast
1:53 PM 30.0 °F 17.9 °F 21.0 °F 69% 30.01 in 10.0 mi WNW 18.4 mph 27.6 mph N/A   Overcast
2:53 PM 30.0 °F 17.5 °F 21.9 °F 72% 30.03 in 10.0 mi WNW 19.6 mph 27.6 mph N/A   Overcast
3:26 PM 30.2 °F 17.8 °F 23.0 °F 75% 30.01 in 2.5 mi NW 19.6 mph 26.5 mph 0.00 in Snow Light Snow
3:44 PM 30.2 °F 17.1 °F 23.0 °F 75% 30.02 in 4.0 mi NW 21.9 mph - 0.00 in Snow Light Snow
3:51 PM 30.2 °F 16.5 °F 23.0 °F 75% 30.02 in 4.0 mi NW 24.2 mph 29.9 mph 0.00 in Snow Light Snow
3:53 PM 30.0 °F 17.2 °F 23.0 °F 75% 30.05 in 4.0 mi NW 20.7 mph 29.9 mph 0.00 in Snow Light Snow
4:53 PM 30.0 °F 15.2 °F 25.0 °F 82% 30.06 in 4.0 mi NW 28.8 mph 36.8 mph 0.00 in   Overcast
5:53 PM 30.0 °F 16.9 °F 25.0 °F 82% 30.11 in 4.0 mi NW 21.9 mph 28.8 mph 0.00 in   Haze
6:53 PM 28.9 °F 14.0 °F 24.1 °F 82% 30.14 in 5.0 mi NNW 27.6 mph - 0.00 in   Haze
7:11 PM 28.4 °F 14.1 °F 24.8 °F 86% 30.12 in 6.0 mi NW 24.2 mph - N/A   Haze
7:36 PM 28.4 °F 14.4 °F 23.0 °F 80% 30.13 in 7.0 mi NW 23.0 mph 31.1 mph N/A   Overcast
7:53 PM 28.0 °F 12.8 °F 21.9 °F 78% 30.17 in 6.0 mi NW 27.6 mph 33.4 mph N/A   Haze
8:53 PM 28.0 °F 14.3 °F 21.9 °F 78% 30.19 in 7.0 mi NNW 21.9 mph 31.1 mph N/A   Overcast
9:50 PM 26.6 °F 13.8 °F 21.2 °F 80% 30.19 in 9.0 mi NNW 17.3 mph - N/A   Overcast
9:53 PM 27.0 °F 13.9 °F 21.9 °F 81% 30.22 in 9.0 mi NNW 18.4 mph - N/A   Overcast
10:53 PM 27.0 °F 13.5 °F 21.9 °F 81% 30.24 in 9.0 mi NNW 19.6 mph - N/A   Overcast
11:53 PM 27.0 °F 13.9 °F 21.9 °F 81% 30.25 in 10.0 mi NNW 18.4 mph - N/A   Overcast